Regional Weather Roundup
Issued by NWS

Home | Current Version | Previous Version | Graphics & Text | Print | Product List | Glossary On
Versions: 1 2 3 4 5 6 7 8 9 10 11 12 13 14 15 16 17 18 19 20 21 22 23 24 25 26 27 28 29 30 31 32 33 34 35 36 37 38 39 40 41 42 43 44 45 46 47 48 49 50
000
ASUS45 KBOI 301810
RWRID
WEATHER ROUNDUP FOR IDAHO
NATIONAL WEATHER SERVICE BOISE ID
1200 PM MDT SAT AUG 30 2014

NOTE: "FAIR" INDICATES FEW OR NO CLOUDS BELOW 12000 FEET
WITH NO SIGNIFICANT WEATHER AND/OR OBSTRUCTIONS TO VISIBILITY

IDZ012-014-301900-
SOUTHWEST IDAHO


CITY           SKY/WX    TMP DP  RH WIND       PRES   REMARKS
BOISE          SUNNY     74  42  31 W9G18     29.93S
CALDWELL       SUNNY     73  43  33 NW15      29.94S
MOUNTAIN HOME  SUNNY     74  41  30 NW15G23   29.93S
$$

IDZ016-017-301900-
SOUTHCENTRAL IDAHO


CITY           SKY/WX    TMP DP  RH WIND       PRES   REMARKS
BURLEY         PTSUNNY   68  46  45 W12G24    29.96R
JEROME         CLOUDY    69  44  40 W13G22    29.97S
TWIN FALLS     CLOUDY    69  43  38 W14       29.98S
$$

IDZ019>023-301900-
SOUTHEAST IDAHO


CITY           SKY/WX    TMP DP  RH WIND       PRES   REMARKS
IDAHO FALLS    CLOUDY    67  49  52 SW21      29.95R
POCATELLO      MOSUNNY   69  46  43 SW23      29.96F
REXBURG        CLOUDY    66  48  52 SW13      29.94R
$$

IDZ006-010-011-018-031-032-301900-
CENTRAL IDAHO MOUNTAINS


CITY           SKY/WX    TMP DP  RH WIND       PRES   REMARKS
MCCALL         PTSUNNY   66  37  34 W10G17    29.96S
HAILEY         PTSUNNY   61  54  77 SE8       30.00R
STANLEY          N/A     60  43  53 CALM      30.02S
SALMON         CLOUDY    64  48  55 NW3       29.88F
CHALLIS        PTSUNNY   63  52  67 N3        29.93F
$$

IDZ002-004-006-007-026-301900-
NORTHERN IDAHO


CITY           SKY/WX    TMP DP  RH WIND       PRES   REMARKS
LEWISTON       PTSUNNY   74  46  36 CALM      29.89F
LOWELL           N/A     71  46  40 CALM      29.90F
COEUR D`ALENE  MOSUNNY   68  43  40 SW7G17    29.89S
MULLAN PASS    CLOUDY    49  39  68 VRB5      29.98S
$$


USA.gov is the U.S. government's official web portal to all federal, state and local government web resources and services.